STARLINK-35272

Last updated on Mon Oct 20 2025 00:02:08 GMT+0000 (Coordinated Universal Time)

1 65899U 25224T 25292.25002315 -.01303778 00000+0 -58351-2 0 9994 2 65899 53.1512 313.3493 0000900 85.7826 106.6326 15.86136007 3146
UTC large
Height (km)
Speed (km/s)
/
Latitude / Longitude
Inclination (degrees)
Orbital Period (minutes)
Azimuth
Elevation
Range (km)
Doppler Factor

Next 0 passes for location: London (51.5072 / 0.1276)

Sorry there are no passes over London.